This is the latest recevied weather packets stored in our database for station/object K1KOF. If no packets are shown the sender has not sent any weather packets the latest 1 day(s).
| Time | Temp. | Humidity | Pressure | Rain* | Wind** | Luminosity | Snow |
|---|---|---|---|---|---|---|---|
| 1778071878 | 17.22° C | 89% | 1025.5 hPa | 0 mm | - | 93 W/m² | - |
| 1778069761 | 16.67° C | 90% | 1025.7 hPa | 0 mm | - | 42 W/m² | - |
| 1778069457 | 16.67° C | 89% | 1025.5 hPa | 0 mm | - | 33 W/m² | - |
| 1778069155 | 16.67° C | 89% | 1025.3 hPa | 0 mm | - | 32 W/m² | - |
| 1778068550 | 16.67° C | 89% | 1025.4 hPa | 0 mm | - | 45 W/m² | - |
| 1778067038 | 16.67° C | 88% | 1025.3 hPa | 0 mm | - | 27 W/m² | - |
| 1778066432 | 16.67° C | 88% | 1025 hPa | 0 mm | - | 17 W/m² | - |
| 1778066130 | 16.67° C | 87% | 1025.1 hPa | 0 mm | - | 18 W/m² | - |
| 1778065827 | 16.67° C | 88% | 1024.9 hPa | 0 mm | - | 17 W/m² | - |
| 1778064615 | 16.67° C | 87% | 1024 hPa | 0 mm | - | 7 W/m² | - |
| 1778064011 | 16.67° C | 87% | 1023.9 hPa | 0 mm | - | 1 W/m² | - |
| 1778063103 | 16.67° C | 87% | 1024.3 hPa | 0 mm | - | 0 W/m² | - |
| 1778061288 | 16.67° C | 86% | 1024.1 hPa | 0 mm | - | 0 W/m² | - |
| 1778060682 | 16.67° C | 86% | 1024 hPa | 0 mm | - | 0 W/m² | - |
| 1778060379 | 16.67° C | 85% | 1024.3 hPa | 0 mm | - | 0 W/m² | - |
| 1778060077 | 16.67° C | 85% | 1024 hPa | 0 mm | - | 0 W/m² | - |
| 1778059169 | 17.22° C | 85% | 1024.2 hPa | 0 mm | - | 0 W/m² | - |
| 1778058867 | 17.22° C | 85% | 1024.4 hPa | 0 mm | - | 0 W/m² | - |
| 1778058564 | 17.22° C | 85% | 1024.5 hPa | 0 mm | - | 0 W/m² | - |
| 1778057958 | 17.22° C | 84% | 1024.7 hPa | 0 mm | - | 0 W/m² | - |
| 1778057655 | 17.22° C | 84% | 1024.7 hPa | 0 mm | - | 0 W/m² | - |
| 1778057351 | 17.22° C | 84% | 1024.7 hPa | 0 mm | - | 0 W/m² | - |
| 1778057048 | 17.22° C | 84% | 1024.8 hPa | 0 mm | - | 0 W/m² | - |
| 1778056744 | 17.22° C | 84% | 1024.6 hPa | 0 mm | - | 0 W/m² | - |
| 1778056139 | 17.78° C | 83% | 1024.6 hPa | 0 mm | - | 0 W/m² | - |
* Rain latest hour (hover to see other rain measurements)
** Current wind speed in m/s (hover to see current wind gust speed)